Location: Deer Path Park
(40.5570°N, 74.8450°W)
Time: 14:50:37
(UTC-04:00)

Iridium 49 - Visible Passes

Search period start: 02 September 2014 00:00
Search period end: 12 September 2014 00:00
Orbit: 776 x 779 km, 86.4° (Epoch: 02 September)

Date Brightness Start Highest point End Pass type
(mag) Time Alt. Az. Time Alt. Az. Time Alt. Az.
02 Sep 8.8 01:08:09 12° NW 01:08:09 12° NW 01:08:34 10° NNW visible
02 Sep 8.5 22:54:15 13° NNE 22:54:15 13° NNE 22:54:51 10° NNE visible
03 Sep 8.6 00:34:43 16° NNW 00:34:43 16° NNW 00:35:51 10° NNW visible
04 Sep 8.4 00:01:17 18° N 00:01:17 18° N 00:02:39 10° N visible
04 Sep 8.3 23:27:50 18° N 23:27:50 18° N 23:29:08 10° N visible
05 Sep 8.4 22:54:23 15° NNE 22:54:23 15° NNE 22:55:19 10° NNE visible
06 Sep 8.8 00:34:52 13° NNW 00:34:52 13° NNW 00:35:32 10° NNW visible
06 Sep 8.5 22:20:56 10° NE 22:20:56 10° NE 22:21:03 10° NNE visible
07 Sep 8.6 00:01:24 17° NNW 00:01:24 17° NNW 00:02:35 10° N visible
07 Sep 8.4 23:27:57 18° N 23:27:57 18° N 23:29:15 10° N visible
08 Sep 8.3 22:54:29 17° NNE 22:54:29 17° NNE 22:55:37 10° NNE visible
09 Sep 8.4 22:21:01 13° NNE 22:21:01 13° NNE 22:21:38 10° NNE visible
10 Sep 8.7 00:01:29 14° NNW 00:01:29 14° NNW 00:02:22 10° NNW visible
10 Sep 8.5 23:28:00 17° N 23:28:00 17° N 23:29:15 10° N visible
11 Sep 8.3 22:54:31 18° N 22:54:31 18° N 22:55:47 10° N visible
